Погода Рудня

Погода Рудня : погода сейчас, прогноз погоды и архив. Всё, что Вы хотите узнать о погоде Рудня!

Поиск расширенной информации на нашем сайте:

Другие новости

Новости СМИ2

Главная страница сайта

Новости сайта

03.07.2017

Напоминаем, что на нашем специализированном сайте Метеоцентр.Азия вы можете получить высокодетализированные автоматические прогнозы погоды по пунктам России, СНГ и мира в авиационном формате (включающие направление и скорость ветра, видимость, явления погоды, количество и форму облачности, нижнюю и верхнюю границу облачности).


Погода Рудня - сегодня

Время (UTC), дата Ветер
(°,м/с) 
Видим.   Явления Облачность Т
(°С)
Тd
(°С)
f(%) Тe
(°С)
Pmin
(гПа)
dP
(гПа)
Po
(мм)
O2
(г/м3)
Тmin Tmax R s Состояние
почвы
15 17.06.18 030 (СВ) 10 км    ясно 
+24.7 -0.9 18 +25  1014.5  -0.7  751  277    +26.8       
18 17.06.18 тихо ()   10 км    ясно 
+18.3 +0.8 31 +18  1015.2  0.5  751  284           
21 17.06.18 310 (СЗ) 10 км    ясно 
+12.4 +5.6 63 +14  1015.6  0.1  751  289           
00 18.06.18 320 (СЗ) 10 км    ясно 
+9.5 +4.7 72 +11  1015.6  -0.2  751  292           
06 18.06.18 300 (СЗ) 10 км    3/3 600 м 
[Cu med, cong]
+25.2 +7.1 31 +25  1014.1  -0.8  751  276           
09 18.06.18 030 (СВ) 10 км    ясно 
+28 -0.8 15 +28  1013  -1  750  274           
12 18.06.18 080 (В) 10 км    ясно 
+29.3 +2.1 17 +29  1011.9  -1  749  272           
15 18.06.18 070 (В) 10 км    ясно 
+27.5 +3 21 +28  1011.9  0.1  749  274    +29.4       
18 18.06.18 тихо ()   10 км    ясно 
+20.4 +6 39 +20  1012.8  0.1  749  280           
21 18.06.18 320 (СЗ) 10 км    ясно 
+14.6 +9.3 70 +16  1013.2  0.2  750  285           
00 19.06.18 тихо ()   10 км    ясно 
+11.5 +6.9 73 +12  1013.8  0.4  750  289           
06 19.06.18 230 (ЮЗ) 10 км    ясно 
+27 +7.4 29 +27  1013.8  750  274           
09 19.06.18 330 (СЗ) 10 км    5/5 600 м 
[Cu med, cong]
+31 +5.3 20 +31  1012.7  -0.9  750  270           
12 19.06.18 310 (СЗ) 10 км    6/6 600 м 
[Cu med, cong]
+30.5 +5.1 20 +31  1011.7  -1  749  271           
18 19.06.18 290 (З) 10 км    5/3 600 м средняя 
[Sc|Ac trans]
+23.2 +10.1 43 +25  1012.4  1.1  749  276           
21 19.06.18 310 (СЗ) 10 км    ясно 
+18.6 +10.9 61 +22  1012.6  749  281           
00 20.06.18 330 (СЗ) 10 км    ясно 
+16.6 +11.1 70 +21  1012.6  0.1  749  283           
06 20.06.18 290 (З) 10 км    8/0 средняя, верхняя 
[Ac trans|Ci fib]
+27.7 +12.4 39 +32  1011.6  -0.4  749  272           
09 20.06.18 280 (З) 3{10}  10 км    6/6 600 м 
[Cu med, cong]
+31.9 +9.1 24 +32  1010.6  -0.4  748  268           
18 20.06.18 тихо ()   10 км    ясно 
+22.7 +12.5 53 +27  1009.7  1.2  747  276           
21 20.06.18 290 (З) 10 км    ясно 
+18.2 +12.1 68 +24  1011.1  1.1  748  280           
00 21.06.18 тихо ()   10 км    3/0 средняя 
[Ac trans]
+14.8 +11 78 +17  1012.2  749  284           
06 21.06.18 310 (СЗ) 10 км    ясно 
+25 +7 32 +25  1013.2  0.2  750  276           
09 21.06.18 310 (СЗ) 10 км    ясно 
+27.3 +5 24 +27  1012.4  -0.7  749  274           
12 21.06.18 320 (СЗ) 4{10}  10 км    ясно 
+28.2 +4 21 +28  1011.5  -0.9  749  273           
Время (UTC), дата Ветер
(°,м/с) 
Видим.   Явления Облачность Т
(°С)
Тd
(°С)
f(%) Тe
(°С)
Pmin
(гПа)
dP
(гПа)
Po
(мм)
O2
(г/м3)
Тmin Tmax R s Состояние
почвы

Для получения пояснительной информации подведите курсор к названию столбца.

ПОГОДА Рудня - архив

Всё, что Вы хотите узнать о погоде Рудня - удобно и подробно!

Выберите нужную дату (начиная с 1 января 2015* года) и нажмите кнопку "Найти".
Будут отображены архивные сводки погоды по пункту Рудня, начиная с указанной даты.


Отображать данные в формате CSV (для использования в таблицах Excel)


Внимание! Наш архив погоды предназначен исключительно для личного некоммерческого использования в познавательных целях. Если Вам необходимы официальные справки о состоянии погоды (для производственных, юридических, коммерческих и т.п. целей), обращайтесь в органы Росгидромета.

*Примечание: данная дата относится к архиву по метеостанциям СССР (Россия, СНГ, Балтия).
Архив по метеостанциям Зарубежной Европы и Азии (кроме Китая) хранится 10 дней, по другим регионам земного шара (Китай, Африка, Америка, Австралия, Океания) - 1 день.

Рудня - район местоположения метеостанции


Название, широта, долгота, высота метеостанции:
Рудня 50.8°ш. 44.6°д. 114 м над ур. моря [Российская Федерация]

Дополнительная информация

В oтличие oт бoльшинства пoгoдных сайтoв мы публикуем пoдрoбную метеoинфoрмацию в детальнoм прoфессиoнальнoм фoрмате.

Характеристики температуры и влажнoсти вoздуха измеряются на высoте 2 м в тени вдали oт зданий и деревьев.
Скoрoсть ветра измеряется на высoте 10 м (на урoвне рoста челoвека скoрoсть ветра ниже в 1.5-2 раза). Если метеoстанция нахoдится в гoрoде или в лесу, тo скoрoсть ветра занижена на 2-4 м/с пo сравнению с oткрытым местoм. Скoрoсть ветра над акватoриями крупных рек и oзёр, а также на вершинах хoлмoв на 2-5 м/с выше, чем в oбычных услoвиях.
Атмoсфернoе давление в разных тoчках местнoсти мoжет значительнo oтличаться oт давления на метеoстанции, в зависимoсти oт услoвий рельефа (при пoдъёме на 10 м давление пoнижается примернo на 1 мм рт.ст.).